TEMISAT

Satellite information

Favourite Embed

Satellite Type and Status

PAYLOADIN ORBIT

Key statistics

Satellite TEMISAT at a glance.

Uptime

11792

Days in orbit

Revolutions

≈ 13.8

Per day

Orbit

LEO

Low Earth Orbit

Inclination

82.6

Latest

Satellite identification and parameters

Extended collection of information and parameters for TEMISAT.

Object identification

Identified? True

Debris? False

Object name: TEMISAT

International designator: 1993-055B

Object number (NORAD): 22783

Object ID (CCSDS): 22783

Country: ITALY (IT)

Current information (Y/N): Y

RCS size: MEDIUM

Orbital parameters

Period: 104.055 minutes

Inclination: 82.5516 deg

SMA: 7328.288 km

Apoapsis: 967.064 km

Periapsis: 933.243 km

RAAN: 86.2574 deg

Eccentricy: 0.00230754

Argument of periapsis: 16.3901 deg

Mean anomaly: 343.8 deg

Mean motion: 13.83881597 rev/day

Mean motion (dot): 0.00000081 rev/day2

B* drag term: 0.000059730882 1/REarth

Two-line elements (TLE)

Creation date: Dec. 12, 2025, 10:14 a.m.

Reference frame: TEME

Reference center: EARTH

Epoch: Dec. 12, 2025, 7:17 a.m. UTC

TLE line 0: 0 TEMISAT

TLE line 1: 1 22783U 93055B 25346.30415045 .00000081 00000-0 59731-4 0 9994

TLE line 2: 2 22783 82.5516 86.2574 0023075 16.3901 343.8000 13.83881597629862

Live tracking on map

Real-time ground track for satellite TEMISAT.

In-orbit conjunctions

A list of the most updated potential collisions computed for object TEMISAT.

Target Orbit TCA Probability of collision Miss distance Type
FENGYUN 1C DEB SSO 2025-06-16 03:44:47 0.00116915 980.0 (m) DEBRIS
THORAD AGENA D DEB SSO 2025-06-16 02:07:45 0.000503261 877.0 (m) DEBRIS
FENGYUN 1C DEB SSO 2024-10-18 09:23:15 0.0003551311 411.0 (m) DEBRIS
THORAD AGENA D DEB SSO 2024-09-24 17:07:36 0.0001118102 569.0 (m) DEBRIS
SL-14 R/B LEO 2024-09-07 20:43:17 0.00434994 93.0 (m) ROCKET BODY

Associated space launch

Second generation soviet meteorological satellite

TEMISAT was lifted into orbit during the mission ‘Tsiklon-3 | Meteor-2 21’, on board a Tsiklon-3 space rocket.

The launch took place on Aug. 31, 1993, 4:40 a.m. from 32/1.

For more information about the launch, click the button.

Launch to space Tsiklon-3 | Meteor-2 21
Tsiklon-3 | Meteor-2 21

Agency: N/A

Status: Launch Successful

Launch date: Aug. 31, 1993, 4:40 a.m. UTC

Rocket: Tsiklon-3

Launch pad: 32/1

Location: Plesetsk Cosmodrome, Russian Federation

...

Latest news about this satellite

There are no fresh news available about this satellite. Check back as we update our databases every day.


Newsletter sign-up

Weekly statistics, charts and insights to help you stay on top of the space industry.